Wind_Speed
18 17 17 17 16 16 16 14 14 12 11 10 9 8 7 6 5 4 4 5 6 6 6 6 7 8 9 10 12 13 14 15 17 18 20 22 24 25 27 28 29 31 32 33
19 18 18 18 17 16 16 16 15 15 14 12 11 9 9 8 7 6 6 7 8 8 8 8 9 10 11 13 14 15 16 17 18 20 22 24 26 28 29 30 31 32 33 35
19 18 18 18 17 17 17 17 17 17 15 14 13 11 11 10 9 8 8 8 9 10 11 10 11 13 14 15 16 18 19 20 21 22 24 26 27 29 30 31 33 33 35 36
19 20 20 16 17 17 18 18 18 18 16 15 12 11 11 10 10 10 10 10 11 12 13 13 14 15 16 17 19 20 21 22 24 25 26 28 29 30 31 33 34 35 36 38
21 20 18 18 18 18 19 20 19 18 17 15 12 11 11 11 11 12 12 13 13 14 14 16 16 17 18 20 21 22 23 24 26 26 27 29 30 32 33 34 35 36 38 39
22 21 20 19 19 20 20 20 20 19 18 16 15 13 12 13 14 13 14 15 16 16 17 18 19 19 21 22 23 24 25 26 27 28 29 31 32 33 34 35 36 38 39 40
20 22 21 20 20 20 20 20 19 20 20 19 18 16 15 15 16 16 17 17 18 19 19 20 21 22 23 24 25 26 27 28 29 30 32 33 34 35 36 37 38 39 40 41
19 21 20 18 19 21 21 21 21 20 19 19 17 17 17 18 18 19 20 20 20 20 21 22 23 24 25 26 27 28 29 30 31 32 33 34 35 36 37 39 40 40 41 42
20 20 20 18 18 20 20 21 21 21 20 21 20 20 20 20 20 21 21 21 22 23 23 24 25 26 28 29 29 30 31 32 33 34 35 36 37 38 39 40 41 42 43 43
24 23 20 19 19 20 19 21 21 22 22 23 22 21 21 21 21 22 22 23 23 24 24 26 27 28 29 30 31 32 33 34 34 35 36 37 38 40 41 42 43 44 44 44
22 21 21 23 22 22 23 23 23 23 22 24 23 21 22 23 23 23 24 25 25 26 27 28 29 30 31 32 33 33 35 36 37 38 38 39 40 41 42 43 44 45 45 45
22 22 23 23 23 22 21 21 20 20 22 22 21 21 23 23 24 25 26 27 27 28 29 30 30 31 33 34 34 35 36 37 38 39 40 41 42 43 44 45 45 45 46 45
24 23 23 23 23 21 20 19 20 21 22 21 22 23 23 24 25 26 27 28 29 29 30 31 32 33 34 36 37 37 37 38 39 41 42 43 44 45 45 45 46 47 46 46
24 24 23 23 23 22 21 21 21 22 23 23 23 24 25 26 27 28 29 30 30 31 32 33 34 35 36 38 38 39 40 41 42 43 45 45 46 46 47 47 47 46 46 46
24 24 24 23 22 22 21 21 21 22 22 23 24 24 25 27 28 29 31 31 32 33 34 35 36 37 39 39 40 41 42 43 44 45 46 47 47 48 48 48 48 47 46 45
24 24 23 23 23 23 22 22 22 22 23 24 25 26 27 28 30 31 32 33 34 35 36 37 38 39 40 41 42 43 44 45 46 47 47 48 49 49 49 48 48 47 46 45
24 25 25 25 24 24 24 24 23 24 25 26 27 28 29 31 32 33 35 35 36 37 38 39 40 41 42 43 44 45 46 46 47 48 49 49 50 50 50 49 48 47 46 44
23 23 24 23 23 23 23 24 25 26 27 28 30 30 31 32 34 35 36 37 38 38 39 41 42 43 44 45 46 47 47 48 49 49 50 51 51 51 51 50 49 47 45 42
22 23 23 22 22 23 24 26 27 28 29 31 32 33 34 35 36 37 37 38 39 40 42 43 44 45 46 47 47 48 49 50 50 51 51 52 52 52 51 50 48 46 44 41
23 23 23 23 24 25 27 28 29 30 31 33 34 35 36 37 38 39 40 41 42 43 44 45 46 47 48 48 49 50 51 51 52 52 52 52 51 50 49 48 46 43 40 37
23 23 24 25 26 27 29 30 31 33 34 35 36 37 38 39 41 41 42 43 44 44 45 46 47 48 49 50 51 51 52 52 52 52 51 50 49 48 47 45 43 40 37 35
25 26 28 29 30 31 32 33 34 35 36 37 38 39 40 41 42 43 44 45 45 46 47 48 49 50 50 51 51 51 51 51 50 50 49 48 47 45 44 42 39 36 34 32
29 30 31 32 33 34 35 36 36 37 38 39 40 41 42 42 43 44 45 46 47 48 49 49 49 50 50 49 49 49 49 49 49 48 47 46 44 42 39 37 34 32 30 28
33 34 34 35 36 36 37 38 39 40 40 41 42 43 43 44 45 46 47 47 48 48 48 49 49 49 49 48 48 48 48 47 47 45 43 41 39 36 33 31 29 27 26 23
37 37 38 38 38 39 39 40 40 41 41 42 43 44 45 46 46 47 47 47 48 48 48 48 48 48 48 48 47 47 46 44 42 40 39 36 33 31 29 27 25 24 22 20
39 39 39 40 40 40 40 41 42 42 42 43 43 44 45 45 46 46 46 46 46 46 46 46 46 46 46 46 45 44 42 40 38 36 34 32 29 27 25 24 22 20 18 17
40 39 39 40 40 41 41 41 42 42 42 43 43 44 44 44 44 44 44 44 44 44 44 44 44 44 43 43 41 39 37 36 33 31 28 26 24 22 20 19 17 15 15 14
Wind_Direction
252 253 252 247 247 252 257 259 261 266 272 277 273 281 293 304 311 319 324 322 317 313 313 315 315 315 316 316 314 315 316 315 316 318 320 321 322 322 322 322 323 323 323 323
251 254 252 246 241 245 251 254 258 263 267 272 276 280 287 293 298 302 307 309 307 306 303 305 306 306 307 307 308 310 311 312 314 315 317 319 320 321 321 321 322 321 322 322
252 250 249 244 242 244 242 247 256 262 266 269 276 280 285 289 292 297 300 301 299 299 298 299 300 301 302 303 304 306 308 309 311 313 314 315 317 319 319 320 320 321 321 322
256 250 248 242 241 243 243 248 256 261 263 268 274 275 277 279 286 290 290 290 290 293 294 294 296 296 297 299 301 303 305 306 308 310 311 313 315 317 318 319 320 320 320 320
253 249 247 242 242 244 245 249 255 261 263 266 266 267 270 275 280 280 281 283 287 289 291 290 290 292 294 295 298 300 302 304 306 308 309 312 313 315 317 318 320 320 320 320
253 251 250 246 243 244 246 250 256 262 264 265 264 266 271 274 275 275 278 283 284 286 290 290 290 291 293 295 298 300 301 302 304 305 307 310 311 313 316 317 319 320 321 320
255 252 253 247 244 247 248 254 261 264 262 263 263 263 270 275 277 278 280 283 286 287 289 290 290 291 294 296 298 299 299 300 302 303 306 308 310 312 314 316 318 319 320 320
253 255 257 252 248 250 255 257 262 265 261 260 261 262 271 275 277 279 281 283 285 286 287 288 290 291 293 294 296 297 298 300 301 302 304 307 309 310 312 314 316 318 319 319
260 263 263 262 263 261 261 259 261 262 263 261 260 263 270 273 275 277 280 283 285 285 285 287 290 291 292 293 295 296 298 300 301 302 304 306 308 310 311 312 314 316 317 318
262 264 268 269 269 270 269 268 264 264 263 262 267 266 270 272 274 277 280 283 284 285 286 287 289 290 291 292 294 296 298 300 301 303 304 306 307 309 310 311 313 314 315 316
267 267 271 270 268 272 273 270 269 266 265 265 267 267 270 273 277 278 280 282 285 286 286 287 288 289 291 292 295 297 297 299 301 302 304 305 307 308 309 310 311 312 314 314
269 272 272 271 271 273 267 265 265 264 266 268 271 273 274 276 278 279 281 283 284 286 287 288 289 290 291 293 294 294 296 297 299 301 302 304 305 306 308 309 310 311 312 313
269 273 273 274 271 270 267 265 264 265 266 271 275 277 277 277 277 278 280 282 283 285 287 288 289 290 291 292 292 294 295 297 299 300 302 303 305 306 307 308 309 310 311 311
268 268 270 269 269 271 272 271 272 273 271 273 276 276 277 278 280 280 282 283 284 285 286 287 289 290 291 292 293 294 296 297 299 300 301 302 304 305 305 306 307 308 309 309
265 269 271 270 270 272 273 274 274 273 273 274 275 277 278 280 281 283 284 284 285 286 287 289 290 290 291 293 293 294 296 297 298 300 300 301 302 303 304 305 306 306 307 307
267 270 270 268 270 272 273 274 275 275 275 276 278 279 280 281 282 283 284 286 287 288 289 290 290 291 293 294 295 295 296 297 298 299 300 300 301 302 302 303 304 304 305 304
268 265 267 269 267 270 274 277 278 278 279 280 281 282 283 284 284 285 286 287 287 288 289 290 291 292 293 294 295 296 296 297 297 298 299 300 300 301 301 301 301 302 302 302
270 271 270 270 272 272 274 276 278 281 283 284 284 283 284 285 285 286 287 288 289 289 290 291 292 293 294 295 296 296 296 297 298 298 299 299 299 299 299 299 299 299 299 298
278 279 277 275 275 276 276 278 281 283 283 284 284 285 286 287 287 288 289 290 290 291 292 293 293 294 294 295 296 296 296 297 298 298 298 298 298 298 298 298 298 298 297 295
279 280 280 279 279 278 279 280 282 283 284 285 286 287 288 289 289 290 290 291 292 292 293 293 294 294 294 295 295 296 296 296 297 297 297 296 296 296 297 297 296 295 294 293
281 283 283 282 281 280 281 282 283 284 285 286 287 288 289 289 290 291 291 291 292 293 293 294 294 295 295 295 295 296 296 296 297 297 296 296 296 296 295 295 294 292 291 289
280 282 282 281 281 282 283 284 285 286 287 288 288 289 289 290 290 291 292 292 293 294 294 295 295 295 295 295 296 296 296 297 297 297 297 297 296 295 294 293 291 288 287 286
281 281 282 282 283 285 286 286 287 287 288 289 290 290 290 291 292 292 293 293 294 295 295 295 296 296 296 296 296 297 297 297 297 297 297 297 295 294 292 290 288 286 283 282
281 281 282 283 284 285 286 287 288 289 290 290 290 291 291 292 292 292 293 294 295 295 296 296 296 297 297 297 297 297 297 297 297 297 297 296 294 292 291 290 287 284 281 278
281 283 284 285 285 286 287 288 289 289 290 291 291 291 292 292 293 293 294 295 295 296 296 297 297 297 297 297 297 297 297 297 296 297 297 295 292 289 288 287 285 283 278 273
283 284 284 285 286 287 288 289 289 290 290 291 291 292 292 293 294 295 295 295 296 296 297 297 297 298 298 298 298 298 298 296 295 296 296 294 291 289 286 284 282 276 270 267
283 284 285 286 288 289 289 289 290 290 291 291 292 293 293 294 294 295 296 296 297 297 298 298 298 299 298 298 298 298 298 297 295 294 294 292 290 287 285 284 279 269 263 262
Height
5839 5840 5840 5840 5840 5840 5840 5840 5841 5842 5842 5842 5842 5842 5843 5842 5842 5842 5842 5842 5842 5841 5841 5840 5839 5838 5837 5836 5834 5833 5831 5829 5827 5824 5821 5818 5815 5811 5807 5803 5799 5794 5789 5784
5834 5835 5835 5835 5836 5836 5836 5835 5836 5837 5838 5838 5838 5839 5839 5839 5839 5839 5839 5839 5838 5838 5837 5836 5836 5835 5834 5832 5831 5829 5827 5824 5822 5819 5816 5813 5809 5805 5801 5797 5792 5788 5783 5777
5830 5829 5829 5831 5832 5831 5831 5831 5832 5832 5834 5834 5834 5835 5835 5835 5835 5835 5835 5835 5834 5834 5833 5832 5832 5831 5829 5828 5826 5824 5822 5819 5817 5814 5811 5807 5803 5799 5795 5790 5786 5781 5775 5770
5824 5825 5825 5829 5827 5827 5827 5827 5827 5828 5829 5829 5830 5831 5831 5831 5831 5831 5831 5831 5830 5829 5829 5828 5827 5826 5824 5823 5821 5819 5817 5814 5811 5808 5804 5801 5797 5792 5788 5783 5778 5773 5767 5762
5818 5818 5820 5822 5822 5822 5822 5823 5823 5823 5824 5825 5826 5826 5827 5827 5827 5827 5827 5827 5826 5825 5824 5823 5822 5821 5819 5817 5815 5813 5811 5808 5805 5801 5798 5794 5789 5785 5781 5776 5770 5765 5759 5753
5812 5813 5814 5817 5817 5817 5818 5818 5818 5818 5819 5820 5821 5822 5823 5823 5822 5822 5822 5821 5821 5820 5819 5818 5816 5815 5813 5812 5809 5807 5804 5801 5798 5794 5790 5786 5782 5777 5773 5768 5762 5756 5751 5744
5806 5806 5808 5810 5812 5813 5814 5814 5814 5813 5814 5815 5816 5817 5818 5818 5817 5817 5817 5816 5815 5814 5813 5812 5811 5809 5807 5805 5803 5800 5797 5794 5790 5786 5782 5778 5774 5769 5764 5759 5754 5748 5742 5736
5800 5800 5804 5804 5806 5808 5808 5808 5809 5809 5809 5809 5810 5811 5812 5812 5812 5811 5811 5810 5809 5808 5807 5806 5804 5802 5800 5798 5795 5793 5789 5786 5782 5778 5774 5770 5765 5760 5755 5750 5745 5739 5733 5727
5794 5797 5797 5797 5799 5801 5801 5802 5802 5803 5804 5804 5805 5805 5805 5805 5805 5804 5804 5803 5802 5801 5800 5798 5796 5794 5792 5790 5787 5784 5781 5777 5774 5770 5765 5761 5756 5751 5746 5741 5735 5729 5723 5717
5788 5789 5789 5791 5793 5794 5795 5795 5795 5796 5797 5798 5798 5798 5798 5799 5798 5798 5797 5796 5795 5794 5792 5790 5788 5786 5784 5781 5778 5775 5771 5768 5764 5760 5756 5751 5746 5741 5736 5731 5725 5719 5713 5707
5781 5782 5784 5785 5786 5787 5788 5788 5788 5789 5789 5790 5790 5791 5791 5792 5791 5790 5789 5788 5787 5785 5784 5782 5780 5777 5775 5772 5769 5765 5762 5759 5755 5751 5746 5741 5736 5731 5726 5721 5714 5709 5703 5697
5775 5776 5777 5777 5778 5779 5780 5780 5781 5781 5782 5783 5783 5783 5783 5783 5783 5782 5781 5780 5778 5777 5775 5773 5771 5768 5765 5762 5760 5756 5753 5749 5745 5740 5736 5731 5726 5721 5715 5710 5704 5698 5691 5686
5768 5768 5769 5769 5770 5772 5772 5773 5773 5774 5775 5775 5776 5776 5775 5775 5774 5774 5773 5771 5770 5768 5766 5764 5761 5759 5756 5752 5749 5746 5742 5738 5734 5730 5725 5720 5715 5710 5705 5699 5692 5686 5680 5674
5760 5761 5762 5763 5763 5764 5765 5766 5766 5766 5767 5767 5768 5768 5767 5766 5765 5765 5763 5762 5760 5758 5756 5754 5751 5748 5745 5742 5738 5734 5731 5727 5722 5718 5713 5708 5703 5698 5692 5687 5682 5675 5669 5663
5753 5754 5755 5755 5756 5756 5757 5758 5758 5759 5759 5759 5760 5759 5758 5757 5756 5755 5754 5752 5750 5748 5745 5743 5740 5737 5734 5730 5726 5723 5719 5714 5710 5705 5700 5695 5690 5685 5679 5674 5669 5663 5658 5652
5746 5747 5747 5748 5748 5749 5749 5750 5751 5751 5751 5751 5751 5750 5749 5748 5747 5745 5743 5742 5739 5737 5734 5731 5728 5725 5722 5718 5714 5710 5706 5701 5697 5692 5687 5682 5677 5672 5666 5661 5656 5650 5645 5640
5738 5739 5739 5740 5740 5741 5741 5742 5742 5742 5742 5742 5741 5740 5739 5738 5737 5735 5733 5731 5729 5726 5723 5720 5717 5713 5709 5705 5702 5697 5693 5688 5684 5679 5674 5668 5663 5658 5653 5647 5642 5637 5633 5627
5731 5731 5732 5732 5733 5733 5733 5734 5734 5733 5733 5732 5732 5731 5729 5728 5726 5724 5722 5719 5717 5714 5711 5707 5704 5700 5696 5692 5688 5684 5679 5674 5670 5665 5659 5654 5649 5644 5638 5633 5629 5624 5619 5615
5724 5724 5724 5724 5725 5725 5725 5725 5725 5724 5723 5722 5721 5720 5718 5716 5714 5712 5710 5707 5704 5701 5698 5694 5690 5687 5682 5678 5674 5669 5664 5660 5655 5650 5644 5639 5634 5628 5623 5618 5614 5610 5606 5603
5717 5717 5717 5717 5717 5717 5716 5716 5715 5714 5713 5712 5710 5708 5706 5704 5702 5700 5697 5694 5691 5688 5684 5680 5676 5672 5668 5664 5659 5654 5649 5644 5639 5634 5629 5623 5618 5613 5608 5604 5600 5596 5593 5590
5709 5709 5708 5708 5708 5707 5707 5706 5705 5704 5702 5700 5699 5697 5694 5692 5689 5687 5684 5681 5677 5674 5670 5666 5662 5657 5653 5648 5643 5639 5634 5628 5623 5618 5613 5608 5603 5598 5593 5589 5585 5582 5580 5578
5701 5700 5700 5699 5698 5698 5697 5695 5694 5692 5691 5689 5686 5684 5682 5679 5676 5673 5670 5667 5663 5659 5655 5651 5646 5642 5637 5633 5628 5622 5617 5612 5607 5602 5597 5592 5587 5583 5579 5576 5572 5569 5568 5566
5692 5691 5690 5689 5688 5687 5686 5684 5682 5680 5678 5676 5674 5671 5668 5665 5662 5659 5656 5652 5648 5644 5640 5635 5631 5626 5621 5617 5612 5607 5602 5597 5592 5587 5582 5577 5573 5569 5566 5563 5560 5558 5557 5556
5682 5681 5680 5678 5677 5675 5674 5672 5670 5668 5665 5663 5660 5657 5655 5652 5648 5645 5641 5637 5633 5629 5624 5620 5615 5610 5606 5601 5596 5591 5587 5582 5577 5572 5568 5564 5560 5556 5554 5551 5549 5548 5547 5547
5670 5669 5668 5667 5665 5663 5662 5659 5657 5655 5652 5650 5647 5643 5640 5637 5634 5630 5626 5622 5618 5613 5609 5604 5600 5595 5591 5586 5581 5576 5572 5567 5563 5559 5555 5552 5548 5546 5544 5542 5540 5539 5539 5539
5659 5658 5656 5654 5653 5651 5649 5647 5644 5641 5639 5636 5633 5630 5626 5622 5619 5615 5611 5607 5603 5598 5594 5589 5585 5580 5576 5571 5566 5562 5557 5553 5550 5547 5544 5541 5538 5536 5535 5533 5532 5532 5532 5532
5647 5646 5644 5642 5640 5638 5635 5633 5630 5627 5625 5622 5619 5615 5612 5608 5604 5600 5596 5592 5588 5584 5579 5575 5571 5566 5561 5557 5553 5549 5545 5541 5538 5535 5533 5531 5529 5528 5527 5526 5526 5526 5526 5527